Location: Unspecified
(0.0000°N, 0.0000°E)
Time: 00:34:32
(UTC+00:00)

Explorer 25 - Pass Details

Date: 07 March 2026
Orbit: 523 x 2264 km, 81.3° (Epoch: 14 April)

Event Time Altitude Azimuth Distance (km) Brightness Sun altitude
Rises 19:51:03 0° 196° (SSW) 5,841 12.8 -24.9°
Reaches altitude 10° 19:54:53 10° 201° (SSW) 4,805 12.4 -25.9°
Maximum altitude 20:06:52 50° 271° (W) 2,421 10.8 -28.9°
Drops below altitude 10° 20:16:25 10° 343° (NNW) 3,830 11.7 -31.2°
Sets 20:19:11 0° 349° (N) 4,600 12.1 -31.9°
